Location: Unspecified
(49.2170°N, 0.0000°E)
Time: 10:58:13
(UTC+00:00)

A-11 Canister half - Pass Details

Date: 25 June 2019
Orbit: 1526 x 1683 km, 47.3° (Epoch: 15 July)

Event Time Altitude Azimuth Distance (km) Brightness Sun altitude
Rises 07:52:13 0° 279° (W) 4,707 11.0 35.2°
Reaches altitude 10° 07:55:17 10° 277° (W) 3,712 10.6 35.7°
Maximum altitude 08:04:33 72° 196° (SSW) 1,595 9.7 37.2°
Drops below altitude 10° 08:13:48 10° 115° (ESE) 3,704 12.2 38.7°
Sets 08:16:52 0° 113° (ESE) 4,697 12.4 39.2°
